Time,TemperatureF,DewpointF,PressureIn,WindDirection,WindDirectionDegrees,WindSpeedMPH,WindSpeedGustMPH,Humidity,HourlyPrecipIn,Conditions,Clouds,dailyrainin,SoftwareType,DateUTC
2013-05-08 00:02:00,59.7,39.7,29.69,ENE,67,0.0,0.0,48,0.00,,,0.00,WUHU21623XXSP,2013-05-08 04:02:00,
2013-05-08 00:08:00,59.5,39.5,29.69,ENE,67,0.0,0.0,48,0.00,,,0.00,WUHU21623XXSP,2013-05-08 04:08:00,
2013-05-08 00:13:00,59.4,39.4,29.69,ENE,67,0.0,0.0,48,0.00,,,0.00,WUHU21623XXSP,2013-05-08 04:13:00,
2013-05-08 00:18:00,59.2,39.2,29.69,ENE,67,0.0,0.0,48,0.00,,,0.00,WUHU21623XXSP,2013-05-08 04:18:00,
2013-05-08 00:23:00,58.6,38.7,29.69,ENE,67,0.0,0.0,48,0.00,,,0.00,WUHU21623XXSP,2013-05-08 04:23:00,
2013-05-08 00:28:00,58.5,38.6,29.69,ENE,67,0.0,0.0,48,0.00,,,0.00,WUHU21623XXSP,2013-05-08 04:28:00,
2013-05-08 00:33:00,58.1,38.2,29.69,ENE,67,0.0,0.0,48,0.00,,,0.00,WUHU21623XXSP,2013-05-08 04:33:00,
2013-05-08 00:38:00,58.1,38.2,29.69,ENE,67,0.0,0.0,48,0.00,,,0.00,WUHU21623XXSP,2013-05-08 04:38:00,
2013-05-08 00:44:00,57.9,38.0,29.69,ENE,67,0.0,0.0,48,0.00,,,0.00,WUHU21623XXSP,2013-05-08 04:44:00,
2013-05-08 00:49:00,57.7,37.8,29.69,ENE,67,0.0,0.0,48,0.00,,,0.00,WUHU21623XXSP,2013-05-08 04:49:00,
2013-05-08 00:54:00,57.6,37.7,29.69,ENE,67,0.0,0.0,48,0.00,,,0.00,WUHU21623XXSP,2013-05-08 04:54:00,
2013-05-08 00:59:00,57.2,37.4,29.69,ENE,67,0.0,0.0,48,0.00,,,0.00,WUHU21623XXSP,2013-05-08 04:59:00,
2013-05-08 01:09:00,56.8,37.0,29.69,ENE,67,0.0,0.0,48,0.00,,,0.00,WUHU21623XXSP,2013-05-08 05:09:00,
2013-05-08 01:14:00,56.5,36.7,29.69,ENE,67,0.0,0.0,48,0.00,,,0.00,WUHU21623XXSP,2013-05-08 05:14:00,
2013-05-08 01:20:00,56.3,36.5,29.69,ENE,67,0.0,0.0,48,0.00,,,0.00,WUHU21623XXSP,2013-05-08 05:20:00,
2013-05-08 01:25:00,56.1,36.4,29.69,ENE,67,0.0,0.0,48,0.00,,,0.00,WUHU21623XXSP,2013-05-08 05:25:00,
2013-05-08 01:30:00,56.1,36.4,29.69,ENE,67,0.0,0.0,48,0.00,,,0.00,WUHU21623XXSP,2013-05-08 05:30:00,
2013-05-08 01:35:00,55.8,36.1,29.69,ENE,67,0.0,0.0,48,0.00,,,0.00,WUHU21623XXSP,2013-05-08 05:35:00,
2013-05-08 01:40:00,55.8,36.1,29.69,ENE,67,0.0,0.0,48,0.00,,,0.00,WUHU21623XXSP,2013-05-08 05:40:00,
2013-05-08 01:45:00,55.6,35.9,29.68,ENE,67,0.0,0.0,48,0.00,,,0.00,WUHU21623XXSP,2013-05-08 05:45:00,
2013-05-08 01:50:00,55.4,35.7,29.68,ENE,67,0.0,0.0,48,0.00,,,0.00,WUHU21623XXSP,2013-05-08 05:50:00,
2013-05-08 01:55:00,55.2,35.5,29.68,ENE,67,0.0,0.0,48,0.00,,,0.00,WUHU21623XXSP,2013-05-08 05:55:00,
2013-05-08 02:01:00,55.0,35.3,29.68,ENE,67,0.0,0.0,48,0.00,,,0.00,WUHU21623XXSP,2013-05-08 06:01:00,
2013-05-08 02:06:00,55.0,35.3,29.68,ENE,67,0.0,0.0,48,0.00,,,0.00,WUHU21623XXSP,2013-05-08 06:06:00,
2013-05-08 02:11:00,55.2,35.5,29.68,ENE,67,0.0,0.0,48,0.00,,,0.00,WUHU21623XXSP,2013-05-08 06:11:00,
2013-05-08 02:16:00,55.2,35.5,29.68,ENE,67,0.0,0.0,48,0.00,,,0.00,WUHU21623XXSP,2013-05-08 06:16:00,
2013-05-08 02:21:00,55.4,35.7,29.68,ENE,67,0.0,0.0,48,0.00,,,0.00,WUHU21623XXSP,2013-05-08 06:21:00,
2013-05-08 02:26:00,55.4,35.7,29.67,ENE,67,0.0,0.0,48,0.00,,,0.00,WUHU21623XXSP,2013-05-08 06:26:00,
2013-05-08 02:32:00,55.6,35.9,29.67,ENE,67,0.0,0.0,48,0.00,,,0.00,WUHU21623XXSP,2013-05-08 06:32:00,
2013-05-08 02:37:00,55.6,35.9,29.67,ENE,67,0.0,0.0,48,0.00,,,0.00,WUHU21623XXSP,2013-05-08 06:37:00,
2013-05-08 02:42:00,55.6,35.9,29.66,ENE,67,0.0,0.0,48,0.00,,,0.00,WUHU21623XXSP,2013-05-08 06:42:00,
2013-05-08 02:47:00,55.6,35.9,29.67,ENE,67,0.0,0.0,48,0.00,,,0.00,WUHU21623XXSP,2013-05-08 06:47:00,
2013-05-08 02:52:00,55.6,35.9,29.66,ENE,67,0.0,0.0,48,0.00,,,0.00,WUHU21623XXSP,2013-05-08 06:52:00,
2013-05-08 02:57:00,55.6,35.9,29.66,ENE,67,0.0,0.0,48,0.00,,,0.00,WUHU21623XXSP,2013-05-08 06:57:00,
2013-05-08 03:02:00,55.6,35.9,29.66,ENE,67,0.0,0.0,48,0.00,,,0.00,WUHU21623XXSP,2013-05-08 07:02:00,
2013-05-08 03:08:00,55.4,35.7,29.66,ENE,67,0.0,0.0,48,0.00,,,0.00,WUHU21623XXSP,2013-05-08 07:08:00,
2013-05-08 03:13:00,55.2,35.5,29.66,ENE,67,0.0,0.0,48,0.00,,,0.00,WUHU21623XXSP,2013-05-08 07:13:00,
2013-05-08 03:18:00,55.2,35.5,29.67,ENE,67,0.0,0.0,48,0.00,,,0.00,WUHU21623XXSP,2013-05-08 07:18:00,
2013-05-08 03:23:00,55.0,35.3,29.67,ENE,67,0.0,0.0,48,0.00,,,0.00,WUHU21623XXSP,2013-05-08 07:23:00,
2013-05-08 03:28:00,55.0,35.3,29.66,ENE,67,0.0,0.0,48,0.00,,,0.00,WUHU21623XXSP,2013-05-08 07:28:00,
2013-05-08 03:33:00,54.9,35.3,29.66,ENE,67,0.0,0.0,48,0.00,,,0.00,WUHU21623XXSP,2013-05-08 07:33:00,
2013-05-08 03:38:00,54.9,35.3,29.67,ENE,67,0.0,0.0,48,0.00,,,0.00,WUHU21623XXSP,2013-05-08 07:38:00,
2013-05-08 03:44:00,54.9,35.3,29.66,ENE,67,0.0,0.0,48,0.00,,,0.00,WUHU21623XXSP,2013-05-08 07:44:00,
2013-05-08 03:49:00,54.9,35.3,29.66,ENE,67,0.0,0.0,48,0.00,,,0.00,WUHU21623XXSP,2013-05-08 07:49:00,
2013-05-08 03:54:00,54.7,35.1,29.66,ENE,67,0.0,0.0,48,0.00,,,0.00,WUHU21623XXSP,2013-05-08 07:54:00,
2013-05-08 03:59:00,54.7,35.1,29.66,ENE,67,0.0,0.0,48,0.00,,,0.00,WUHU21623XXSP,2013-05-08 07:59:00,
2013-05-08 04:04:00,54.7,35.1,29.67,ENE,67,0.0,0.0,48,0.00,,,0.00,WUHU21623XXSP,2013-05-08 08:04:00,
2013-05-08 04:09:00,54.5,34.9,29.67,ENE,67,0.0,0.0,48,0.00,,,0.00,WUHU21623XXSP,2013-05-08 08:09:00,
2013-05-08 04:14:00,54.5,34.9,29.67,ENE,67,0.0,0.0,48,0.00,,,0.00,WUHU21623XXSP,2013-05-08 08:14:00,
2013-05-08 04:20:00,54.3,34.7,29.66,ENE,67,0.0,0.0,48,0.00,,,0.00,WUHU21623XXSP,2013-05-08 08:20:00,
2013-05-08 04:25:00,54.3,34.7,29.66,ENE,67,0.0,0.0,48,0.00,,,0.00,WUHU21623XXSP,2013-05-08 08:25:00,
2013-05-08 04:30:00,54.0,34.4,29.66,ENE,67,0.0,0.0,48,0.00,,,0.00,WUHU21623XXSP,2013-05-08 08:30:00,
2013-05-08 04:35:00,54.0,34.4,29.66,ENE,67,0.0,0.0,48,0.00,,,0.00,WUHU21623XXSP,2013-05-08 08:35:00,
2013-05-08 04:40:00,54.0,34.4,29.66,ENE,67,0.0,0.0,48,0.00,,,0.00,WUHU21623XXSP,2013-05-08 08:40:00,
2013-05-08 04:45:00,53.8,34.2,29.66,ENE,67,0.0,0.0,48,0.00,,,0.00,WUHU21623XXSP,2013-05-08 08:45:00,
2013-05-08 04:50:00,53.8,34.2,29.67,ENE,67,0.0,0.0,48,0.00,,,0.00,WUHU21623XXSP,2013-05-08 08:50:00,
2013-05-08 04:56:00,53.8,34.2,29.67,ENE,67,0.0,0.0,48,0.00,,,0.00,WUHU21623XXSP,2013-05-08 08:56:00,
2013-05-08 05:01:00,53.8,34.2,29.66,ENE,67,0.0,0.0,48,0.00,,,0.00,WUHU21623XXSP,2013-05-08 09:01:00,
2013-05-08 05:06:00,53.8,34.2,29.66,ENE,67,0.0,0.0,48,0.00,,,0.00,WUHU21623XXSP,2013-05-08 09:06:00,
2013-05-08 05:11:00,54.0,34.4,29.66,ENE,67,0.0,0.0,48,0.00,,,0.00,WUHU21623XXSP,2013-05-08 09:11:00,
2013-05-08 05:16:00,54.0,34.4,29.66,ENE,67,0.0,0.0,48,0.00,,,0.00,WUHU21623XXSP,2013-05-08 09:16:00,
2013-05-08 05:17:00,54.0,34.4,29.66,ENE,67,0.0,0.0,48,0.00,,,0.00,WUHU21623XXSP,2013-05-08 09:17:00,
2013-05-08 05:20:00,54.0,34.4,29.66,ENE,67,0.0,0.0,48,0.00,,,0.00,WUHU21623XXSP,2013-05-08 09:20:00,
2013-05-08 05:25:00,54.0,34.4,29.66,ENE,67,0.0,0.0,48,0.00,,,0.00,WUHU21623XXSP,2013-05-08 09:25:00,
2013-05-08 05:30:00,54.0,34.4,29.66,ENE,67,0.0,0.0,48,0.00,,,0.00,WUHU21623XXSP,2013-05-08 09:30:00,
2013-05-08 05:35:00,54.0,34.4,29.66,ENE,67,0.0,0.0,48,0.00,,,0.00,WUHU21623XXSP,2013-05-08 09:35:00,
2013-05-08 05:41:00,53.8,34.2,29.66,ENE,67,0.0,0.0,48,0.00,,,0.00,WUHU21623XXSP,2013-05-08 09:41:00,
2013-05-08 05:46:00,53.8,34.2,29.66,ENE,67,0.0,0.0,48,0.00,,,0.00,WUHU21623XXSP,2013-05-08 09:46:00,
2013-05-08 05:51:00,53.8,34.2,29.66,ENE,67,0.0,0.0,48,0.00,,,0.00,WUHU21623XXSP,2013-05-08 09:51:00,
2013-05-08 05:56:00,53.6,34.1,29.66,ENE,67,0.0,0.0,48,0.00,,,0.00,WUHU21623XXSP,2013-05-08 09:56:00,
2013-05-08 06:01:00,53.4,33.9,29.66,ENE,67,0.0,0.0,48,0.00,,,0.00,WUHU21623XXSP,2013-05-08 10:01:00,
2013-05-08 06:06:00,53.2,33.7,29.66,ENE,67,0.0,0.0,48,0.00,,,0.00,WUHU21623XXSP,2013-05-08 10:06:00,
2013-05-08 06:12:00,53.2,33.7,29.66,ENE,67,0.0,0.0,48,0.00,,,0.00,WUHU21623XXSP,2013-05-08 10:12:00,
2013-05-08 06:17:00,53.1,33.6,29.66,ENE,67,0.0,0.0,48,0.00,,,0.00,WUHU21623XXSP,2013-05-08 10:17:00,
2013-05-08 06:22:00,53.1,33.6,29.66,ENE,67,0.0,0.0,48,0.00,,,0.00,WUHU21623XXSP,2013-05-08 10:22:00,
2013-05-08 06:27:00,53.1,33.6,29.66,ENE,67,0.0,0.0,48,0.00,,,0.00,WUHU21623XXSP,2013-05-08 10:27:00,
2013-05-08 06:32:00,53.1,33.6,29.66,ENE,67,0.0,0.0,48,0.00,,,0.00,WUHU21623XXSP,2013-05-08 10:32:00,
2013-05-08 06:37:00,53.1,33.6,29.66,ENE,67,0.0,0.0,48,0.00,,,0.00,WUHU21623XXSP,2013-05-08 10:37:00,
2013-05-08 06:42:00,53.2,35.0,29.66,ENE,67,0.0,0.0,50,0.00,,,0.00,WUHU21623XXSP,2013-05-08 10:42:00,
2013-05-08 06:48:00,53.4,33.9,29.66,ENE,67,0.0,0.0,48,0.00,,,0.00,WUHU21623XXSP,2013-05-08 10:48:00,
2013-05-08 06:53:00,53.8,35.6,29.66,ENE,67,0.0,0.0,50,0.00,,,0.00,WUHU21623XXSP,2013-05-08 10:53:00,
2013-05-08 06:58:00,54.0,35.8,29.67,ENE,67,0.0,0.0,50,0.00,,,0.00,WUHU21623XXSP,2013-05-08 10:58:00,
2013-05-08 07:03:00,54.3,36.0,29.67,ENE,67,0.0,0.0,50,0.00,,,0.00,WUHU21623XXSP,2013-05-08 11:03:00,
2013-05-08 07:08:00,54.3,34.7,29.66,ENE,67,0.0,0.0,48,0.00,,,0.00,WUHU21623XXSP,2013-05-08 11:08:00,
2013-05-08 07:13:00,54.7,35.1,29.67,NE,45,0.0,0.0,48,0.00,,,0.00,WUHU21623XXSP,2013-05-08 11:13:00,
2013-05-08 07:18:00,54.9,35.3,29.67,NE,45,0.0,0.0,48,0.00,,,0.00,WUHU21623XXSP,2013-05-08 11:18:00,
2013-05-08 07:24:00,54.9,35.3,29.67,NE,45,0.0,0.0,48,0.00,,,0.00,WUHU21623XXSP,2013-05-08 11:24:00,
2013-05-08 07:29:00,55.0,35.3,29.68,NE,45,0.0,0.0,48,0.00,,,0.00,WUHU21623XXSP,2013-05-08 11:29:00,
2013-05-08 07:34:00,55.6,35.9,29.67,NE,45,0.0,0.0,48,0.00,,,0.00,WUHU21623XXSP,2013-05-08 11:34:00,
2013-05-08 07:39:00,55.8,36.1,29.67,North,0,0.0,0.0,48,0.00,,,0.00,WUHU21623XXSP,2013-05-08 11:39:00,
2013-05-08 07:49:00,56.8,37.0,29.68,North,0,0.0,0.0,48,0.00,,,0.00,WUHU21623XXSP,2013-05-08 11:49:00,
2013-05-08 07:54:00,57.4,37.6,29.68,NNW,337,0.0,1.6,48,0.00,,,0.00,WUHU21623XXSP,2013-05-08 11:54:00,
2013-05-08 08:00:00,57.9,38.0,29.68,North,0,1.1,1.6,48,0.00,,,0.00,WUHU21623XXSP,2013-05-08 12:00:00,
2013-05-08 08:05:00,58.5,38.6,29.68,North,355,6.8,57.0,48,0.00,,,0.00,WUHU21623XXSP,2013-05-08 12:05:00,
2013-05-08 08:10:00,59.2,39.2,29.68,North,359,19.9,57.0,48,0.00,,,0.00,WUHU21623XXSP,2013-05-08 12:10:00,
2013-05-08 08:15:00,59.7,39.7,29.68,North,0,57.0,57.0,48,0.00,,,0.00,WUHU21623XXSP,2013-05-08 12:15:00,
2013-05-08 08:20:00,60.3,40.2,29.68,North,354,21.3,57.0,48,0.00,,,0.00,WUHU21623XXSP,2013-05-08 12:20:00,
2013-05-08 08:25:00,60.6,40.5,29.68,NW,315,1.8,57.0,48,0.00,,,0.00,WUHU21623XXSP,2013-05-08 12:25:00,
2013-05-08 08:31:00,61.3,41.1,29.69,North,0,57.0,57.0,48,0.00,,,0.00,WUHU21623XXSP,2013-05-08 12:31:00,
2013-05-08 08:36:00,61.5,41.3,29.68,North,0,1.1,57.0,48,0.00,,,0.00,WUHU21623XXSP,2013-05-08 12:36:00,
2013-05-08 08:41:00,62.1,41.9,29.68,NNW,337,1.5,57.0,48,0.00,,,0.00,WUHU21623XXSP,2013-05-08 12:41:00,
2013-05-08 08:46:00,62.2,42.0,29.68,North,0,57.0,57.0,48,0.00,,,0.00,WUHU21623XXSP,2013-05-08 12:46:00,
2013-05-08 08:51:00,62.2,42.0,29.69,North,358,9.3,57.0,48,0.00,,,0.00,WUHU21623XXSP,2013-05-08 12:51:00,
2013-05-08 08:56:00,62.8,42.5,29.69,North,0,57.0,57.0,48,0.00,,,0.00,WUHU21623XXSP,2013-05-08 12:56:00,
2013-05-08 09:01:00,63.0,42.7,29.68,NNE,22,0.0,57.0,48,0.00,,,0.00,WUHU21623XXSP,2013-05-08 13:01:00,
2013-05-08 09:07:00,63.3,43.0,29.68,NNE,22,2.9,57.0,48,0.00,,,0.00,WUHU21623XXSP,2013-05-08 13:07:00,
2013-05-08 09:12:00,63.5,43.2,29.68,South,180,1.5,57.0,48,0.00,,,0.00,WUHU21623XXSP,2013-05-08 13:12:00,
2013-05-08 09:17:00,64.0,43.6,29.68,NNE,28,2.9,57.0,48,0.00,,,0.00,WUHU21623XXSP,2013-05-08 13:17:00,
2013-05-08 09:22:00,64.6,44.2,29.68,North,359,29.3,57.0,48,0.00,,,0.00,WUHU21623XXSP,2013-05-08 13:22:00,
2013-05-08 09:27:00,65.1,44.6,29.69,North,0,1.3,57.0,48,0.00,,,0.00,WUHU21623XXSP,2013-05-08 13:27:00,
2013-05-08 09:32:00,65.7,45.2,29.68,NNW,338,2.8,57.0,48,0.00,,,0.00,WUHU21623XXSP,2013-05-08 13:32:00,
2013-05-08 09:38:00,66.6,46.0,29.69,North,2,11.6,57.0,48,0.00,,,0.00,WUHU21623XXSP,2013-05-08 13:38:00,
2013-05-08 09:43:00,67.1,46.5,29.68,North,6,11.2,57.0,48,0.00,,,0.00,WUHU21623XXSP,2013-05-08 13:43:00,
2013-05-08 09:48:00,67.6,46.9,29.68,North,5,15.6,57.0,48,0.00,,,0.00,WUHU21623XXSP,2013-05-08 13:48:00,
2013-05-08 09:53:00,68.2,47.5,29.68,NE,45,2.7,57.0,48,0.00,,,0.00,WUHU21623XXSP,2013-05-08 13:53:00,
2013-05-08 09:58:00,68.7,47.9,29.68,North,0,57.0,57.0,48,0.00,,,0.00,WUHU21623XXSP,2013-05-08 13:58:00,
2013-05-08 10:03:00,69.3,48.5,29.68,North,0,57.0,57.0,48,0.00,,,0.00,WUHU21623XXSP,2013-05-08 14:03:00,
2013-05-08 10:08:00,70.2,49.3,29.68,NE,54,1.4,57.0,48,0.00,,,0.00,WUHU21623XXSP,2013-05-08 14:08:00,
2013-05-08 10:14:00,70.9,50.0,29.68,ESE,112,1.8,57.0,48,0.00,,,0.00,WUHU21623XXSP,2013-05-08 14:14:00,
2013-05-08 10:19:00,71.6,50.6,29.68,North,2,15.3,57.0,48,0.00,,,0.00,WUHU21623XXSP,2013-05-08 14:19:00,
2013-05-08 10:24:00,72.0,51.0,29.67,ESE,115,2.5,57.0,48,0.00,,,0.00,WUHU21623XXSP,2013-05-08 14:24:00,
2013-05-08 10:29:00,72.3,51.3,29.67,North,1,12.6,57.0,48,0.00,,,0.00,WUHU21623XXSP,2013-05-08 14:29:00,
2013-05-08 10:34:00,72.5,51.4,29.68,NE,45,0.9,57.0,48,0.00,,,0.00,WUHU21623XXSP,2013-05-08 14:34:00,
2013-05-08 10:39:00,72.7,51.6,29.68,NE,45,1.5,57.0,48,0.00,,,0.00,WUHU21623XXSP,2013-05-08 14:39:00,
2013-05-08 10:44:00,73.0,51.9,29.68,North,357,20.0,57.0,48,0.00,,,0.00,WUHU21623XXSP,2013-05-08 14:44:00,
2013-05-08 10:50:00,73.4,52.3,29.68,SSE,152,2.3,57.0,48,0.00,,,0.00,WUHU21623XXSP,2013-05-08 14:50:00,
2013-05-08 10:55:00,73.8,52.6,29.68,NNE,22,2.1,57.0,48,0.00,,,0.00,WUHU21623XXSP,2013-05-08 14:55:00,
2013-05-08 11:00:00,74.1,52.9,29.68,SSE,157,2.7,57.0,48,0.00,,,0.00,WUHU21623XXSP,2013-05-08 15:00:00,
2013-05-08 11:05:00,74.5,53.3,29.68,North,0,20.2,57.0,48,0.00,,,0.00,WUHU21623XXSP,2013-05-08 15:05:00,
2013-05-08 11:16:00,75.0,53.7,29.67,NNW,341,1.9,57.0,48,0.00,,,0.00,WUHU21623XXSP,2013-05-08 15:16:00,
2013-05-08 11:21:00,74.8,53.5,29.68,NNE,19,1.8,57.0,48,0.00,,,0.00,WUHU21623XXSP,2013-05-08 15:21:00,
2013-05-08 11:26:00,75.2,53.9,29.68,NE,36,3.0,57.0,48,0.00,,,0.00,WUHU21623XXSP,2013-05-08 15:26:00,
2013-05-08 11:31:00,75.4,54.1,29.68,NNE,22,1.1,57.0,48,0.00,,,0.00,WUHU21623XXSP,2013-05-08 15:31:00,
2013-05-08 11:36:00,75.6,54.3,29.67,North,355,2.4,57.0,48,0.00,,,0.00,WUHU21623XXSP,2013-05-08 15:36:00,
2013-05-08 11:41:00,75.7,54.4,29.67,North,0,5.6,57.0,48,0.00,,,0.00,WUHU21623XXSP,2013-05-08 15:41:00,
2013-05-08 11:46:00,75.9,54.6,29.67,North,5,15.9,57.0,48,0.00,,,0.00,WUHU21623XXSP,2013-05-08 15:46:00,
2013-05-08 11:51:00,75.9,54.6,29.68,NNW,340,2.4,57.0,48,0.00,,,0.00,WUHU21623XXSP,2013-05-08 15:51:00,
2013-05-08 11:56:00,76.6,55.2,29.67,NE,52,3.9,4.7,48,0.00,,,0.00,WUHU21623XXSP,2013-05-08 15:56:00,
2013-05-08 12:01:00,77.2,55.8,29.67,North,5,11.1,57.0,48,0.00,,,0.00,WUHU21623XXSP,2013-05-08 16:01:00,
2013-05-08 12:06:00,77.2,55.8,29.67,NW,307,1.8,57.0,48,0.00,,,0.00,WUHU21623XXSP,2013-05-08 16:06:00,
2013-05-08 12:11:00,77.7,56.2,29.67,NNE,22,2.5,57.0,48,0.00,,,0.00,WUHU21623XXSP,2013-05-08 16:11:00,
2013-05-08 12:16:00,78.3,56.8,29.67,North,8,10.3,57.0,48,0.00,,,0.00,WUHU21623XXSP,2013-05-08 16:16:00,
2013-05-08 12:21:00,79.0,57.4,29.67,NNW,337,1.4,57.0,48,0.00,,,0.00,WUHU21623XXSP,2013-05-08 16:21:00,
2013-05-08 12:26:00,79.3,57.7,29.66,SSE,157,0.9,4.3,48,0.00,,,0.00,WUHU21623XXSP,2013-05-08 16:26:00,
2013-05-08 12:31:00,79.9,58.2,29.66,North,349,7.0,57.0,48,0.00,,,0.00,WUHU21623XXSP,2013-05-08 16:31:00,
2013-05-08 12:36:00,79.7,58.0,29.65,ESE,106,2.3,57.0,48,0.00,,,0.00,WUHU21623XXSP,2013-05-08 16:36:00,
2013-05-08 12:42:00,79.9,58.2,29.65,ESE,112,2.9,57.0,48,0.00,,,0.00,WUHU21623XXSP,2013-05-08 16:42:00,
2013-05-08 12:46:00,80.2,58.5,29.65,NW,315,4.0,57.0,48,0.00,,,0.00,WUHU21623XXSP,2013-05-08 16:46:00,
2013-05-08 12:52:00,80.2,58.5,29.65,NW,323,3.1,57.0,48,0.00,,,0.00,WUHU21623XXSP,2013-05-08 16:52:00,
2013-05-08 12:57:00,80.1,58.4,29.65,ESE,112,1.3,57.0,48,0.00,,,0.00,WUHU21623XXSP,2013-05-08 16:57:00,
2013-05-08 13:02:00,79.7,58.0,29.65,NE,35,1.7,57.0,48,0.00,,,0.00,WUHU21623XXSP,2013-05-08 17:02:00,
2013-05-08 13:07:00,79.7,58.0,29.64,North,4,10.8,57.0,48,0.00,,,0.00,WUHU21623XXSP,2013-05-08 17:07:00,
2013-05-08 13:12:00,79.9,58.2,29.64,NE,51,2.5,57.0,48,0.00,,,0.00,WUHU21623XXSP,2013-05-08 17:12:00,
2013-05-08 13:24:00,80.1,58.4,29.64,ENE,58,2.2,57.0,48,0.00,,,0.00,WUHU21623XXSP,2013-05-08 17:24:00,
2013-05-08 13:29:00,80.1,58.4,29.65,North,349,4.2,57.0,48,0.00,,,0.00,WUHU21623XXSP,2013-05-08 17:29:00,
2013-05-08 13:34:00,79.7,58.0,29.64,ESE,114,3.2,57.0,48,0.00,,,0.00,WUHU21623XXSP,2013-05-08 17:34:00,
2013-05-08 13:39:00,80.1,58.4,29.63,ENE,67,5.1,57.0,48,0.00,,,0.00,WUHU21623XXSP,2013-05-08 17:39:00,
2013-05-08 13:44:00,79.9,58.2,29.64,North,3,8.8,57.0,48,0.00,,,0.00,WUHU21623XXSP,2013-05-08 17:44:00,
2013-05-08 13:49:00,80.1,58.4,29.64,NNE,17,2.1,57.0,48,0.00,,,0.00,WUHU21623XXSP,2013-05-08 17:49:00,
2013-05-08 13:54:00,80.2,58.5,29.64,SE,143,2.2,57.0,48,0.00,,,0.00,WUHU21623XXSP,2013-05-08 17:54:00,
2013-05-08 13:59:00,80.6,58.9,29.64,North,359,20.3,57.0,48,0.00,,,0.00,WUHU21623XXSP,2013-05-08 17:59:00,
2013-05-08 14:04:00,81.0,59.2,29.64,NE,54,3.5,57.0,48,0.00,,,0.00,WUHU21623XXSP,2013-05-08 18:04:00,
2013-05-08 14:09:00,81.3,59.5,29.64,South,176,3.5,57.0,48,0.00,,,0.00,WUHU21623XXSP,2013-05-08 18:09:00,
2013-05-08 14:14:00,82.0,60.2,29.64,SE,136,2.3,57.0,48,0.00,,,0.00,WUHU21623XXSP,2013-05-08 18:14:00,
2013-05-08 14:19:00,82.0,60.2,29.64,NNE,23,3.3,57.3,48,0.00,,,0.00,WUHU21623XXSP,2013-05-08 18:19:00,
2013-05-08 14:24:00,81.1,59.3,29.63,SE,132,2.5,57.3,48,0.00,,,0.00,WUHU21623XXSP,2013-05-08 18:24:00,
2013-05-08 14:29:00,80.8,59.1,29.63,NNW,334,3.9,57.0,48,0.00,,,0.00,WUHU21623XXSP,2013-05-08 18:29:00,
2013-05-08 14:34:00,81.0,59.2,29.63,North,358,12.8,57.0,48,0.00,,,0.00,WUHU21623XXSP,2013-05-08 18:34:00,
2013-05-08 14:39:00,81.7,59.9,29.62,NNE,25,3.6,57.0,48,0.00,,,0.00,WUHU21623XXSP,2013-05-08 18:39:00,
2013-05-08 14:44:00,81.7,59.9,29.62,North,4,15.8,57.0,48,0.00,,,0.00,WUHU21623XXSP,2013-05-08 18:44:00,
2013-05-08 14:49:00,81.5,59.7,29.62,North,4,21.0,57.0,48,0.00,,,0.00,WUHU21623XXSP,2013-05-08 18:49:00,
2013-05-08 14:54:00,81.3,59.5,29.62,NW,315,2.4,57.0,48,0.00,,,0.00,WUHU21623XXSP,2013-05-08 18:54:00,
2013-05-08 14:58:00,81.0,59.2,29.62,North,0,2.5,57.0,48,0.00,,,0.00,WUHU21623XXSP,2013-05-08 18:58:00,
2013-05-08 15:03:00,81.3,59.5,29.62,SSE,164,2.3,57.0,48,0.00,,,0.00,WUHU21623XXSP,2013-05-08 19:03:00,
2013-05-08 15:08:00,82.4,60.5,29.62,South,180,3.6,57.0,48,0.00,,,0.00,WUHU21623XXSP,2013-05-08 19:08:00,
2013-05-08 15:13:00,83.1,61.2,29.62,SSE,157,2.2,57.0,48,0.00,,,0.00,WUHU21623XXSP,2013-05-08 19:13:00,
2013-05-08 15:19:00,83.1,61.2,29.62,North,0,1.9,2.2,48,0.00,,,0.00,WUHU21623XXSP,2013-05-08 19:19:00,
2013-05-08 15:24:00,82.0,60.2,29.62,South,187,2.3,3.4,48,0.00,,,0.00,WUHU21623XXSP,2013-05-08 19:24:00,
2013-05-08 15:29:00,81.7,59.9,29.62,NNE,22,2.1,4.7,48,0.00,,,0.00,WUHU21623XXSP,2013-05-08 19:29:00,
2013-05-08 15:34:00,81.3,59.5,29.62,North,0,45.8,57.0,48,0.00,,,0.00,WUHU21623XXSP,2013-05-08 19:34:00,
2013-05-08 15:39:00,80.8,59.1,29.62,SE,135,1.6,57.0,48,0.00,,,0.00,WUHU21623XXSP,2013-05-08 19:39:00,
2013-05-08 15:44:00,80.4,58.7,29.61,SE,135,1.1,57.0,48,0.00,,,0.00,WUHU21623XXSP,2013-05-08 19:44:00,
2013-05-08 15:49:00,80.4,58.7,29.61,North,0,57.0,57.0,48,0.00,,,0.00,WUHU21623XXSP,2013-05-08 19:49:00,
2013-05-08 15:55:00,80.2,58.5,29.61,NE,45,0.0,57.0,48,0.00,,,0.00,WUHU21623XXSP,2013-05-08 19:55:00,
2013-05-08 16:00:00,79.9,58.2,29.61,South,173,2.5,57.0,48,0.00,,,0.00,WUHU21623XXSP,2013-05-08 20:00:00,
2013-05-08 16:05:00,79.5,57.9,29.61,SSE,161,2.8,57.0,48,0.00,,,0.00,WUHU21623XXSP,2013-05-08 20:05:00,
2013-05-08 16:10:00,79.2,57.6,29.61,North,1,20.3,57.0,48,0.00,,,0.00,WUHU21623XXSP,2013-05-08 20:10:00,
2013-05-08 16:15:00,78.8,57.2,29.61,North,0,20.6,57.0,48,0.00,,,0.00,WUHU21623XXSP,2013-05-08 20:15:00,
2013-05-08 16:20:00,78.6,57.0,29.61,North,2,24.3,57.0,48,0.00,,,0.00,WUHU21623XXSP,2013-05-08 20:20:00,
2013-05-08 16:26:00,78.3,56.8,29.61,NE,45,2.7,57.0,48,0.00,,,0.00,WUHU21623XXSP,2013-05-08 20:26:00,
2013-05-08 16:31:00,78.1,56.6,29.61,NNE,22,3.6,57.0,48,0.00,,,0.00,WUHU21623XXSP,2013-05-08 20:31:00,
2013-05-08 16:36:00,78.1,56.6,29.61,North,0,1.9,3.6,48,0.00,,,0.00,WUHU21623XXSP,2013-05-08 20:36:00,
2013-05-08 16:41:00,77.9,56.4,29.61,SSE,157,2.2,2.7,48,0.00,,,0.00,WUHU21623XXSP,2013-05-08 20:41:00,
2013-05-08 16:46:00,78.1,56.6,29.61,SSE,157,0.0,57.0,48,0.00,,,0.00,WUHU21623XXSP,2013-05-08 20:46:00,
2013-05-08 16:51:00,78.6,57.0,29.60,SSE,157,1.3,57.0,48,0.00,,,0.00,WUHU21623XXSP,2013-05-08 20:51:00,
2013-05-08 16:56:00,79.0,57.4,29.61,SE,135,0.0,57.0,48,0.00,,,0.00,WUHU21623XXSP,2013-05-08 20:56:00,
2013-05-08 17:01:00,79.2,57.6,29.60,SSE,157,0.0,57.0,48,0.00,,,0.00,WUHU21623XXSP,2013-05-08 21:01:00,
2013-05-08 17:07:00,79.3,57.7,29.60,SE,124,2.2,57.0,48,0.00,,,0.00,WUHU21623XXSP,2013-05-08 21:07:00,
2013-05-08 17:12:00,79.5,57.9,29.60,North,1,29.5,57.0,48,0.00,,,0.00,WUHU21623XXSP,2013-05-08 21:12:00,
2013-05-08 17:17:00,79.5,57.9,29.60,SSE,159,2.3,57.0,48,0.00,,,0.00,WUHU21623XXSP,2013-05-08 21:17:00,
2013-05-08 17:22:00,79.5,57.9,29.60,ESE,112,0.0,57.0,48,0.00,,,0.00,WUHU21623XXSP,2013-05-08 21:22:00,
2013-05-08 17:27:00,79.2,57.6,29.60,SE,135,0.0,57.0,48,0.00,,,0.00,WUHU21623XXSP,2013-05-08 21:27:00,
2013-05-08 17:32:00,78.6,57.0,29.61,SSE,157,0.0,57.0,48,0.00,,,0.00,WUHU21623XXSP,2013-05-08 21:32:00,
2013-05-08 17:37:00,78.1,56.6,29.61,South,180,3.6,57.0,48,0.00,,,0.00,WUHU21623XXSP,2013-05-08 21:37:00,
2013-05-08 17:43:00,77.7,56.2,29.61,South,180,2.5,57.0,48,0.00,,,0.00,WUHU21623XXSP,2013-05-08 21:43:00,
2013-05-08 17:48:00,77.0,55.6,29.61,North,2,19.8,57.0,48,0.00,,,0.00,WUHU21623XXSP,2013-05-08 21:48:00,
2013-05-08 17:53:00,76.5,55.1,29.60,South,180,0.0,57.0,48,0.00,,,0.00,WUHU21623XXSP,2013-05-08 21:53:00,
2013-05-08 17:58:00,75.9,54.6,29.60,North,0,57.0,57.0,48,0.00,,,0.00,WUHU21623XXSP,2013-05-08 21:58:00,
2013-05-08 18:03:00,75.7,54.4,29.61,North,0,29.1,57.0,48,0.00,,,0.00,WUHU21623XXSP,2013-05-08 22:03:00,
2013-05-08 18:08:00,75.6,54.3,29.61,NNE,32,2.7,57.0,48,0.00,,,0.00,WUHU21623XXSP,2013-05-08 22:08:00,
2013-05-08 18:13:00,75.0,53.7,29.61,North,359,13.3,57.0,48,0.00,,,0.00,WUHU21623XXSP,2013-05-08 22:13:00,
2013-05-08 18:19:00,74.8,53.5,29.61,NNE,22,4.9,57.0,48,0.00,,,0.00,WUHU21623XXSP,2013-05-08 22:19:00,
2013-05-08 18:24:00,74.5,53.3,29.61,North,5,10.3,57.0,48,0.00,,,0.00,WUHU21623XXSP,2013-05-08 22:24:00,
2013-05-08 18:29:00,74.1,52.9,29.61,North,3,16.4,57.0,48,0.00,,,0.00,WUHU21623XXSP,2013-05-08 22:29:00,
2013-05-08 18:34:00,73.8,52.6,29.61,NNE,22,0.0,57.0,48,0.00,,,0.00,WUHU21623XXSP,2013-05-08 22:34:00,
2013-05-08 18:39:00,73.8,52.6,29.61,NE,45,0.0,3.6,48,0.00,,,0.00,WUHU21623XXSP,2013-05-08 22:39:00,
2013-05-08 18:44:00,73.6,52.4,29.61,NNE,22,2.7,3.1,48,0.00,,,0.00,WUHU21623XXSP,2013-05-08 22:44:00,
2013-05-08 18:50:00,73.8,52.6,29.61,North,8,1.7,3.1,48,0.00,,,0.00,WUHU21623XXSP,2013-05-08 22:50:00,
2013-05-08 18:55:00,73.9,52.7,29.61,North,5,8.3,57.0,48,0.00,,,0.00,WUHU21623XXSP,2013-05-08 22:55:00,
2013-05-08 19:07:00,75.7,54.4,29.61,SSE,166,3.0,57.0,48,0.00,,,0.00,WUHU21623XXSP,2013-05-08 23:07:00,
2013-05-08 19:12:00,76.5,55.1,29.61,South,176,3.2,6.5,48,0.00,,,0.00,WUHU21623XXSP,2013-05-08 23:12:00,
2013-05-08 19:17:00,76.1,54.7,29.61,SSE,157,1.9,57.0,48,0.00,,,0.00,WUHU21623XXSP,2013-05-08 23:17:00,
2013-05-08 19:22:00,75.9,54.6,29.61,SSE,157,1.8,57.0,48,0.00,,,0.00,WUHU21623XXSP,2013-05-08 23:22:00,
2013-05-08 19:23:00,75.6,54.3,29.61,SSE,157,3.4,4.9,48,0.00,,,0.00,WUHU21623XXSP,2013-05-08 23:23:00,
2013-05-08 19:29:00,75.0,53.7,29.61,SSE,157,2.4,4.9,48,0.00,,,0.00,WUHU21623XXSP,2013-05-08 23:29:00,
2013-05-08 19:34:00,74.5,53.3,29.62,SSE,157,2.7,4.5,48,0.00,,,0.00,WUHU21623XXSP,2013-05-08 23:34:00,
2013-05-08 19:39:00,74.1,52.9,29.61,North,3,9.2,57.0,48,0.00,,,0.00,WUHU21623XXSP,2013-05-08 23:39:00,
2013-05-08 19:44:00,73.8,52.6,29.61,SSE,157,3.8,57.0,48,0.00,,,0.00,WUHU21623XXSP,2013-05-08 23:44:00,
2013-05-08 19:49:00,73.2,52.1,29.61,SSE,160,2.6,57.0,48,0.00,,,0.00,WUHU21623XXSP,2013-05-08 23:49:00,
2013-05-08 19:54:00,72.9,51.8,29.61,North,6,13.2,57.0,48,0.00,,,0.00,WUHU21623XXSP,2013-05-08 23:54:00,
2013-05-08 20:00:00,72.5,51.4,29.62,North,4,15.6,57.0,48,0.00,,,0.00,WUHU21623XXSP,2013-05-09 00:00:00,
2013-05-08 20:05:00,72.0,51.0,29.62,SE,135,0.8,57.0,48,0.00,,,0.00,WUHU21623XXSP,2013-05-09 00:05:00,
2013-05-08 20:10:00,71.8,50.8,29.62,East,95,1.6,3.8,48,0.00,,,0.00,WUHU21623XXSP,2013-05-09 00:10:00,
2013-05-08 20:15:00,71.2,50.2,29.62,SSE,157,1.2,3.8,48,0.00,,,0.00,WUHU21623XXSP,2013-05-09 00:15:00,
2013-05-08 20:20:00,70.9,50.0,29.62,SSE,157,0.0,57.0,48,0.00,,,0.00,WUHU21623XXSP,2013-05-09 00:20:00,
2013-05-08 20:25:00,70.5,49.6,29.62,SSE,157,0.0,57.0,48,0.00,,,0.00,WUHU21623XXSP,2013-05-09 00:25:00,
2013-05-08 20:30:00,70.2,49.3,29.62,SSE,157,0.0,1.6,48,0.00,,,0.00,WUHU21623XXSP,2013-05-09 00:30:00,
2013-05-08 20:36:00,70.0,49.1,29.62,SSE,157,0.0,0.0,48,0.00,,,0.00,WUHU21623XXSP,2013-05-09 00:36:00,
2013-05-08 20:41:00,69.6,48.8,29.62,SSE,157,0.0,0.0,48,0.00,,,0.00,WUHU21623XXSP,2013-05-09 00:41:00,
2013-05-08 20:46:00,69.3,48.5,29.63,SSE,157,0.0,0.0,48,0.00,,,0.00,WUHU21623XXSP,2013-05-09 00:46:00,
2013-05-08 20:51:00,68.9,48.1,29.63,SSE,157,0.0,0.0,48,0.00,,,0.00,WUHU21623XXSP,2013-05-09 00:51:00,
2013-05-08 20:56:00,68.5,47.8,29.63,SSE,157,0.0,0.0,48,0.00,,,0.00,WUHU21623XXSP,2013-05-09 00:56:00,
2013-05-08 21:01:00,68.2,47.5,29.63,SSE,157,0.0,0.0,48,0.00,,,0.00,WUHU21623XXSP,2013-05-09 01:01:00,
2013-05-08 21:06:00,67.8,47.1,29.63,SSE,157,0.0,0.0,48,0.00,,,0.00,WUHU21623XXSP,2013-05-09 01:06:00,
2013-05-08 21:12:00,67.5,46.8,29.63,SSE,157,0.0,0.0,48,0.00,,,0.00,WUHU21623XXSP,2013-05-09 01:12:00,
2013-05-08 21:17:00,66.9,46.3,29.63,SSE,157,0.0,0.0,48,0.00,,,0.00,WUHU21623XXSP,2013-05-09 01:17:00,
2013-05-08 21:22:00,66.4,45.8,29.64,SSE,157,0.0,0.0,48,0.00,,,0.00,WUHU21623XXSP,2013-05-09 01:22:00,
2013-05-08 21:27:00,66.0,45.5,29.64,SSE,157,0.0,0.0,48,0.00,,,0.00,WUHU21623XXSP,2013-05-09 01:27:00,
2013-05-08 21:32:00,65.8,45.3,29.64,SSE,157,0.0,0.0,48,0.00,,,0.00,WUHU21623XXSP,2013-05-09 01:32:00,
2013-05-08 21:37:00,65.5,45.0,29.64,SSE,157,0.0,0.0,48,0.00,,,0.00,WUHU21623XXSP,2013-05-09 01:37:00,
2013-05-08 21:43:00,64.9,44.5,29.64,SSE,157,0.0,0.0,48,0.00,,,0.00,WUHU21623XXSP,2013-05-09 01:43:00,
2013-05-08 21:47:00,64.6,44.2,29.65,SSE,157,0.0,0.0,48,0.00,,,0.00,WUHU21623XXSP,2013-05-09 01:47:00,
2013-05-08 21:53:00,64.2,43.8,29.65,SSE,157,0.0,0.0,48,0.00,,,0.00,WUHU21623XXSP,2013-05-09 01:53:00,
2013-05-08 21:58:00,64.0,43.6,29.64,SSE,157,0.0,0.0,48,0.00,,,0.00,WUHU21623XXSP,2013-05-09 01:58:00,
2013-05-08 22:03:00,63.9,43.5,29.65,North,0,0.0,0.0,48,0.00,,,0.00,WUHU21623XXSP,2013-05-09 02:03:00,
2013-05-08 22:08:00,63.7,43.3,29.65,SSE,157,0.0,0.0,48,0.00,,,0.00,WUHU21623XXSP,2013-05-09 02:08:00,
2013-05-08 22:13:00,63.3,43.0,29.64,SSE,157,0.0,0.0,48,0.00,,,0.00,WUHU21623XXSP,2013-05-09 02:13:00,
2013-05-08 22:19:00,63.3,43.0,29.65,SSE,157,0.0,0.0,48,0.00,,,0.00,WUHU21623XXSP,2013-05-09 02:19:00,
2013-05-08 22:24:00,63.0,42.7,29.65,SSE,157,0.0,0.0,48,0.00,,,0.00,WUHU21623XXSP,2013-05-09 02:24:00,
2013-05-08 22:29:00,62.6,42.3,29.65,SSE,157,0.0,0.0,48,0.00,,,0.00,WUHU21623XXSP,2013-05-09 02:29:00,
2013-05-08 22:34:00,62.4,42.2,29.65,SSE,157,0.0,0.0,48,0.00,,,0.00,WUHU21623XXSP,2013-05-09 02:34:00,
2013-05-08 22:39:00,62.2,42.0,29.65,SSE,157,0.0,0.0,48,0.00,,,0.00,WUHU21623XXSP,2013-05-09 02:39:00,
2013-05-08 22:44:00,62.1,41.9,29.66,NE,45,0.0,0.0,48,0.00,,,0.00,WUHU21623XXSP,2013-05-09 02:44:00,
2013-05-08 22:49:00,61.9,41.7,29.66,NE,45,0.0,0.0,48,0.00,,,0.00,WUHU21623XXSP,2013-05-09 02:49:00,
2013-05-08 22:55:00,61.9,41.7,29.66,NE,45,0.0,0.0,48,0.00,,,0.00,WUHU21623XXSP,2013-05-09 02:55:00,
2013-05-08 23:00:00,61.7,41.5,29.65,NE,45,0.0,0.0,48,0.00,,,0.00,WUHU21623XXSP,2013-05-09 03:00:00,
2013-05-08 23:05:00,61.7,41.5,29.65,NE,45,0.0,0.0,48,0.00,,,0.00,WUHU21623XXSP,2013-05-09 03:05:00,
2013-05-08 23:10:00,61.7,41.5,29.65,North,0,1.4,2.0,48,0.00,,,0.00,WUHU21623XXSP,2013-05-09 03:10:00,
2013-05-08 23:15:00,61.7,41.5,29.65,NE,45,0.0,2.0,48,0.00,,,0.00,WUHU21623XXSP,2013-05-09 03:15:00,
2013-05-08 23:20:00,61.5,41.3,29.65,North,0,1.4,1.4,48,0.00,,,0.00,WUHU21623XXSP,2013-05-09 03:20:00,
2013-05-08 23:25:00,61.5,41.3,29.65,South,180,0.0,1.4,48,0.00,,,0.00,WUHU21623XXSP,2013-05-09 03:25:00,
2013-05-08 23:31:00,61.5,41.3,29.65,South,180,0.0,0.0,48,0.00,,,0.00,WUHU21623XXSP,2013-05-09 03:31:00,
2013-05-08 23:36:00,61.5,41.3,29.65,South,180,0.0,0.0,48,0.00,,,0.00,WUHU21623XXSP,2013-05-09 03:36:00,
2013-05-08 23:41:00,61.2,41.0,29.65,South,180,0.0,0.0,48,0.00,,,0.00,WUHU21623XXSP,2013-05-09 03:41:00,
2013-05-08 23:46:00,61.2,41.0,29.64,South,180,0.0,0.0,48,0.00,,,0.00,WUHU21623XXSP,2013-05-09 03:46:00,
2013-05-08 23:51:00,61.0,40.9,29.64,South,180,0.0,0.0,48,0.00,,,0.00,WUHU21623XXSP,2013-05-09 03:51:00,
2013-05-08 23:56:00,61.0,40.9,29.64,South,180,0.0,0.0,48,0.00,,,0.00,WUHU21623XXSP,2013-05-09 03:56:00,